CW3518 Weather Reports


Display with metric or nautical units.
time (UTC)temp
F
wind
direction
speed
MPH
gust
MPH
rain 1hr
in
rain 24hr
in
rain mn
in
humidity
%
barometer
mb
20260502224002 75 292 8.0 14.0 0.00 0.00 0.00 37 1018.8
20260502223502 75 298 12.0 14.0 0.00 0.00 0.00 37 1018.8
20260502223002 75 275 9.0 15.0 0.00 0.00 0.00 37 1018.8
20260502222502 75 324 5.0 15.0 0.00 0.00 0.00 35 1018.9
20260502222002 74 356 3.0 15.0 0.00 0.00 0.00 36 1019.0
20260502221503 74 301 10.0 15.0 0.00 0.00 0.00 37 1019.0
20260502221003 74 275 8.0 10.0 0.00 0.00 0.00 38 1019.0
20260502220532 74 322 3.0 9.0 0.00 0.00 0.00 37 1019.0
20260502220002 75 271 8.0 9.0 0.00 0.00 0.00 37 1019.1
20260502215502 74 310 8.0 10.0 0.00 0.00 0.00 38 1019.2
20260502215002 73 306 8.0 14.0 0.00 0.00 0.00 38 1019.2
20260502214502 74 317 8.0 15.0 0.00 0.00 0.00 38 1019.2
20260502214002 75 290 10.0 16.0 0.00 0.00 0.00 38 1019.2
20260502213503 75 279 15.0 16.0 0.00 0.00 0.00 38 1019.2
20260502212502 74 301 6.0 13.0 0.00 0.00 0.00 38 1019.4
20260502212002 75 283 5.0 13.0 0.00 0.00 0.00 39 1019.5
20260502211502 75 292 10.0 14.0 0.00 0.00 0.00 38 1019.5
20260502211002 75 267 8.0 16.0 0.00 0.00 0.00 39 1019.5
20260502210502 74 278 11.0 16.0 0.00 0.00 0.00 38 1019.6
20260502205003 74 262 5.0 13.0 0.00 0.00 0.00 38 1019.7
20260502204504 75 264 8.0 11.0 0.00 0.00 0.00 39 1019.8
20260502204002 75 275 11.0 11.0 0.00 0.00 0.00 38 1019.9
20260502203032 73 314 9.0 9.0 0.00 0.00 0.00 37 1020.1
20260502202502 73 137 3.0 9.0 0.00 0.00 0.00 39 1020.2
20260502202032 73 263 4.0 8.0 0.00 0.00 0.00 41 1020.3
20260502201532 73 259 5.0 14.0 0.00 0.00 0.00 41 1020.4
20260502201002 73 293 13.0 14.0 0.00 0.00 0.00 39 1020.4
20260502200003 73 358 3.0 11.0 0.00 0.00 0.00 40 1020.4
20260502195502 73 272 5.0 9.0 0.00 0.00 0.00 40 1020.4
20260502195003 73 332 7.0 13.0 0.00 0.00 0.00 38 1020.5
20260502194503 72 277 2.0 13.0 0.00 0.00 0.00 38 1020.5
20260502193002 73 277 7.0 11.0 0.00 0.00 0.00 39 1020.6
20260502192502 72 350 6.0 11.0 0.00 0.00 0.00 39 1020.6
20260502192003 72 30 4.0 12.0 0.00 0.00 0.00 39 1020.6
20260502190502 72 218 3.0 11.0 0.00 0.00 0.00 39 1020.8
20260502190002 73 138 4.0 12.0 0.00 0.00 0.00 37 1020.9
20260502185502 72 320 4.0 12.0 0.00 0.00 0.00 38 1021.0
20260502185002 73 255 6.0 12.0 0.00 0.00 0.00 39 1021.0
20260502184503 73 299 9.0 13.0 0.00 0.00 0.00 40 1021.1
20260502184002 72 6 11.0 13.0 0.00 0.00 0.00 37 1021.1
20260502183503 72 356 4.0 12.0 0.00 0.00 0.00 38 1021.2
20260502182502 72 13 7.0 12.0 0.00 0.00 0.00 36 1021.4
20260502182033 71 243 3.0 15.0 0.00 0.00 0.00 37 1021.4
20260502181503 72 305 15.0 15.0 0.00 0.00 0.00 38 1021.5
20260502181033 72 315 12.0 15.0 0.00 0.00 0.00 37 1021.6
20260502180533 71 350 3.0 11.0 0.00 0.00 0.00 38 1021.6
20260502170504 70 300 8.0 11.0 0.00 0.00 0.00 35 1022.2
20260502164002 70 49 5.0 7.0 0.00 0.00 0.00 34 1022.4
20260502163503 70 337 3.0 8.0 0.00 0.00 0.00 35 1022.4
20260502162502 69 1 7.0 10.0 0.00 0.00 0.00 33 1022.4
20260502161503 69 293 4.0 9.0 0.00 0.00 0.00 38 1022.2
20260502161003 69 310 2.0 9.0 0.00 0.00 0.00 37 1022.2
20260502152003 67 338 9.0 9.0 0.00 0.00 0.00 38 1022.1
20260502151502 66 301 7.0 9.0 0.00 0.00 0.00 39 1022.1
20260502150532 66 347 4.0 9.0 0.00 0.00 0.00 40 1022.1
20260502130503 57 347 5.0 5.0 0.00 0.00 0.00 68 1021.6
20260502123533 55 335 4.0 5.0 0.00 0.00 0.00 67 1021.2
20260502123033 54 320 5.0 5.0 0.00 0.00 0.00 69 1021.2
20260502122533 54 319 5.0 6.0 0.00 0.00 0.00 69 1021.1
20260502122033 53 314 6.0 6.0 0.00 0.00 0.00 70 1021.0
20260502121503 53 314 5.0 7.0 0.00 0.00 0.00 73 1020.9
20260502121033 53 318 6.0 7.0 0.00 0.00 0.00 75 1020.8
20260502120533 52 316 6.0 7.0 0.00 0.00 0.00 77 1020.7
20260502115533 52 305 5.0 7.0 0.00 0.00 0.00 76 1020.6
20260502115033 52 299 6.0 7.0 0.00 0.00 0.00 76 1020.5
20260502113533 53 313 5.0 7.0 0.00 0.00 0.00 76 1020.3
20260502113033 52 313 6.0 7.0 0.00 0.00 0.00 75 1020.1
20260502112503 52 315 5.0 7.0 0.00 0.00 0.00 76 1020.1
20260502112003 53 314 6.0 7.0 0.00 0.00 0.00 76 1020.0
20260502111533 53 302 5.0 7.0 0.00 0.00 0.00 76 1020.0
20260502111033 53 302 6.0 8.0 0.00 0.00 0.00 77 1020.0
20260502110534 52 297 7.0 9.0 0.00 0.00 0.00 81 1020.0
20260502110033 51 296 7.0 9.0 0.00 0.00 0.00 82 1020.0
20260502105503 51 297 7.0 9.0 0.00 0.00 0.00 83 1019.8
20260502104003 51 292 7.0 10.0 0.00 0.00 0.00 82 1019.8
20260502103503 51 283 8.0 10.0 0.00 0.00 0.00 83 1019.8
20260502103003 50 276 8.0 9.0 0.00 0.00 0.00 83 1019.7
20260502102503 50 273 7.0 8.0 0.00 0.00 0.00 83 1019.7
20260502102003 52 283 7.0 8.0 0.00 0.00 0.00 79 1019.6
20260502101003 53 298 8.0 9.0 0.00 0.00 0.00 76 1019.4
20260502091503 54 298 6.0 7.0 0.00 0.00 0.00 77 1019.4
20260502091003 54 294 6.0 7.0 0.00 0.00 0.00 79 1019.4
20260502090503 54 292 6.0 7.0 0.00 0.00 0.00 78 1019.4
20260502071003 53 277 6.0 7.0 0.00 0.00 0.00 90 1019.6
20260502070503 53 278 7.0 7.0 0.00 0.00 0.00 91 1019.6
20260502070003 53 278 7.0 7.0 0.00 0.00 0.00 91 1019.7
20260502065503 53 258 5.0 6.0 0.00 0.00 0.00 92 1019.7
20260502065003 52 253 5.0 5.0 0.00 0.00 0.00 92 1019.6
20260502064003 52 232 5.0 5.0 0.00 0.00 0.00 93 1019.7
20260502063503 52 243 5.0 5.0 0.00 0.00 0.00 92 1019.7
20260502063003 52 225 4.0 5.0 0.00 0.00 0.00 93 1019.6
20260502062503 53 235 3.0 5.0 0.00 0.00 0.00 91 1019.6
20260502062033 54 213 5.0 6.0 0.00 0.00 0.00 86 1019.6
20260502061533 55 193 3.0 6.0 0.00 0.00 0.00 84 1019.6
20260502061033 55 171 4.0 6.0 0.00 0.00 0.00 81 1019.6
20260502060503 56 141 2.0 3.0 0.00 0.00 0.00 80 1019.6
20260502060033 57 348 3.0 4.0 0.00 0.00 0.00 80 1019.6
20260502055003 57 342 3.0 5.0 0.00 0.00 0.00 77 1019.6
20260502054504 58 349 4.0 6.0 0.00 0.00 0.00 76 1019.6
20260502054003 58 6 5.0 6.0 0.00 0.00 0.00 74 1019.6
20260502053503 59 9 6.0 6.0 0.00 0.00 0.00 73 1019.5
20260502053003 59 8 4.0 4.0 0.00 0.00 0.00 74 1019.5
20260502052533 58 348 3.0 4.0 0.00 0.00 0.00 77 1019.5
20260502051533 58 302 3.0 4.0 0.00 0.00 0.00 80 1019.4
20260502051033 57 276 3.0 5.0 0.00 0.00 0.00 84 1019.4
20260502050533 57 271 3.0 5.0 0.00 0.00 0.00 84 1019.3
20260502050003 57 248 4.0 4.0 0.00 0.00 0.00 85 1019.3
20260502044504 57 238 5.0 5.0 0.00 0.00 0.00 86 1019.1
20260502044003 57 239 5.0 5.0 0.00 0.00 0.00 82 1019.0
20260502043503 58 216 4.0 5.0 0.00 0.00 0.00 79 1019.0
20260502043003 59 233 4.0 4.0 0.00 0.00 0.00 78 1019.0
20260502042503 60 264 3.0 5.0 0.00 0.00 0.00 73 1019.1
20260502042003 60 292 4.0 5.0 0.00 0.00 0.00 73 1019.3
20260502041004 60 288 4.0 5.0 0.00 0.00 0.00 70 1019.3
20260502040503 60 305 4.0 5.0 0.00 0.00 0.00 72 1019.3
20260502035503 60 315 3.0 5.0 0.00 0.00 0.00 72 1019.2
20260502035004 60 305 5.0 5.0 0.00 0.00 0.00 72 1019.2
20260502034503 60 305 3.0 4.0 0.00 0.00 0.00 72 1019.2
20260502034003 60 313 3.0 3.0 0.00 0.00 0.00 72 1019.2
20260502033503 60 320 2.0 3.0 0.00 0.00 0.00 72 1019.2
20260502033003 60 309 2.0 4.0 0.00 0.00 0.00 73 1019.2
20260502032504 60 290 3.0 4.0 0.00 0.00 0.00 72 1019.1
20260502031506 61 321 4.0 5.0 0.00 0.00 0.00 73 1019.1
20260502031003 61 304 4.0 5.0 0.00 0.00 0.00 72 1019.1
20260502030503 61 308 4.0 5.0 0.00 0.00 0.00 73 1019.0
20260502030003 61 303 3.0 5.0 0.00 0.00 0.00 73 1018.9
20260502025504 61 294 5.0 5.0 0.00 0.00 0.00 73 1018.9
20260502025003 61 302 3.0 4.0 0.00 0.00 0.00 75 1018.8
20260502024503 61 317 4.0 4.0 0.00 0.00 0.00 75 1018.8
20260502024003 61 292 4.0 4.0 0.00 0.00 0.00 74 1018.8
20260502023503 61 296 4.0 5.0 0.00 0.00 0.00 75 1018.7
20260502023003 61 285 4.0 5.0 0.00 0.00 0.00 74 1018.6
20260502022503 61 275 5.0 5.0 0.00 0.00 0.00 72 1018.6
20260502022003 61 258 3.0 3.0 0.00 0.00 0.00 75 1018.5
20260502021503 61 252 2.0 3.0 0.00 0.00 0.00 74 1018.4
20260502021003 62 232 3.0 4.0 0.00 0.00 0.00 73 1018.2
20260502020003 62 251 3.0 3.0 0.00 0.00 0.00 71 1018.1
20260502015503 62 312 1.0 3.0 0.00 0.00 0.00 72 1018.1
20260502015033 62 246 3.0 3.0 0.00 0.00 0.00 70 1017.8
20260502014503 62 259 3.0 3.0 0.00 0.00 0.00 70 1017.6
20260502014034 62 265 2.0 3.0 0.00 0.00 0.00 73 1017.6
20260502013033 62 242 2.0 3.0 0.00 0.00 0.00 70 1017.4
20260502012503 62 209 3.0 3.0 0.00 0.00 0.00 70 1017.4
20260502011534 62 156 2.0 4.0 0.00 0.00 0.00 69 1017.1
20260502010005 62 130 3.0 4.0 0.00 0.00 0.00 69 1016.9
20260502004503 63 127 4.0 5.0 0.00 0.00 0.00 69 1016.7
20260502003503 63 129 3.0 6.0 0.00 0.00 0.00 68 1016.6
20260502003033 63 117 4.0 6.0 0.00 0.00 0.00 67 1016.5
20260502002503 63 116 5.0 5.0 0.00 0.00 0.00 66 1016.5
20260502002003 64 135 3.0 5.0 0.00 0.00 0.00 65 1016.4
20260502001503 64 116 4.0 4.0 0.00 0.00 0.00 63 1016.3
20260502000503 64 143 2.0 6.0 0.00 0.00 0.00 62 1016.2
20260502000003 64 49 2.0 6.0 0.00 0.00 0.00 61 1016.2
20260501235503 64 109 5.0 5.0 0.00 0.00 0.00 60 1016.1
20260501235004 64 100 5.0 7.0 0.00 0.00 0.00 61 1016.1
20260501234505 64 60 1.0 7.0 0.00 0.00 0.00 62 1016.0
20260501233503 64 91 5.0 9.0 0.00 0.00 0.00 60 1015.9
20260501233005 64 104 6.0 10.0 0.00 0.00 0.00 58 1015.8
20260501232504 64 97 6.0 10.0 0.00 0.00 0.00 60 1015.7
20260501232003 64 95 8.0 10.0 0.00 0.00 0.00 58 1015.6
20260501231503 64 89 9.0 10.0 0.00 0.00 0.00 57 1015.6
20260501231003 64 104 9.0 9.0 0.00 0.00 0.00 58 1015.6
20260501230504 64 100 8.0 9.0 0.00 0.00 0.00 58 1015.7
20260501230003 64 81 4.0 9.0 0.00 0.00 0.00 59 1015.7
20260501225003 64 97 7.0 9.0 0.00 0.00 0.00 59 1015.7
20260501224503 64 102 7.0 10.0 0.00 0.00 0.00 59 1015.7